Terminal Aerodrome Forecast
Issued by NWS

Home | Current Version | Previous Version | Text Only | Print | Product List | Glossary On
Versions: 1 2 3 4 5 6 7 8 9 10 11 12 13
000
FTUS45 KABQ 290539
TAFFMN
TAF
KFMN 290539Z 2906/3006 07005KT P6SM SCT100 SCT150
     FM291500 13006KT P6SM SCT120
     FM292000 23008KT P6SM SCT120
     FM292300 05011KT P6SM VCSH SCT090 BKN120
     FM300300 08006KT P6SM BKN120=

USA.gov is the U.S. government's official web portal to all federal, state and local government web resources and services.